Date String (YYYY-MM-DD hh:mm:ss) UTC,Instrument flags,Ambient pressure (hPa),Sample flow (lpm),Bypass flow (lpm),Sample temperature (°C),Ambient temperature (°C),ASC tube jacket temperature (°C),LED temperature (°C),Box temperature (°C),Sample RH (%),Span deviation,Mass concentration (μg/m³),Mass concentration (μg/m³),Mass concentration (μg/m³)
DateTimeUTC,F1_M11,P_M11,Q1_M11,Q2_M11,T1_M11,T2_M11,T3_M11,T4_M11,T5_M11,U1_M11,ZSPAN_M11,X0_M11,X2_M11,X1_M11
2021-09-10 09:00:00,,0829.5,4.99,0.00,29.9,29.0,00.0,38.9,31.7,09.6,-000.6,0028.47,0019.19,0018.15
2021-09-10 09:01:00,,0829.6,5.01,0.00,30.0,28.3,00.0,38.9,31.6,09.6,0000.1,0029.38,0019.23,0018.18
2021-09-10 09:02:00,,0829.5,5.01,0.00,29.8,26.5,00.0,38.9,31.1,09.7,-000.1,0030.42,0019.27,0018.21
2021-09-10 09:03:00,,0829.5,4.99,0.00,29.7,26.2,00.0,38.9,31.0,09.7,0000.0,0029.93,0019.20,0018.22
2021-09-10 09:04:00,,0829.6,4.99,0.00,29.6,26.5,00.0,38.8,31.0,09.8,0000.1,0029.94,0019.25,0018.26
2021-09-10 09:05:00,,0829.6,5.00,0.00,29.5,27.0,00.0,38.8,31.1,09.8,0000.0,0029.18,0019.30,0018.26
2021-09-10 09:06:00,,0829.6,5.00,0.00,29.5,27.3,00.0,38.8,31.1,09.8,0000.2,0028.66,0019.31,0018.29
2021-09-10 09:07:00,,0829.6,5.00,0.00,29.5,27.6,00.0,38.7,31.2,09.8,-000.0,0028.83,0019.38,0018.30
2021-09-10 09:08:00,,0829.6,5.00,0.00,29.6,27.9,00.0,38.7,31.2,09.8,0000.3,0029.18,0019.43,0018.31
2021-09-10 09:09:00,,0829.6,5.01,0.00,29.6,28.0,00.0,38.7,31.3,09.8,-000.1,0029.26,0019.42,0018.32
2021-09-10 09:10:00,,0829.6,4.99,0.00,29.6,28.2,00.0,38.7,31.3,09.8,-000.2,0029.60,0019.49,0018.34
2021-09-10 09:11:00,,0829.6,4.99,0.00,29.6,28.3,00.0,38.7,31.4,09.8,-000.1,0029.92,0019.54,0018.35
2021-09-10 09:12:00,,0829.7,5.01,0.00,29.7,28.4,00.0,38.7,31.4,09.7,-000.3,0029.08,0019.46,0018.32
2021-09-10 09:13:00,,0829.6,4.99,0.00,29.7,28.5,00.0,38.7,31.4,09.8,-000.0,0028.00,0019.46,0018.32
2021-09-10 09:14:00,,0829.7,5.01,0.00,29.7,28.6,00.0,38.7,31.4,09.8,-000.1,0027.87,0019.43,0018.31
2021-09-10 09:15:00,,0829.6,5.01,0.00,29.7,28.6,00.0,38.8,31.5,09.8,0000.2,0028.26,0019.42,0018.31
2021-09-10 09:16:00,,0829.7,5.00,0.00,29.8,28.7,00.0,38.8,31.5,09.7,0000.3,0028.23,0019.40,0018.32
2021-09-10 09:17:00,,0829.6,5.01,0.00,29.8,28.7,00.0,38.8,31.5,09.6,-000.1,0028.66,0019.38,0018.30
2021-09-10 09:18:00,,0829.6,4.99,0.00,29.8,28.8,00.0,38.8,31.6,09.6,0000.2,0029.31,0019.32,0018.28
2021-09-10 09:19:00,,0829.7,5.00,0.00,29.8,28.8,00.0,38.8,31.6,09.5,0000.4,0028.89,0019.30,0018.27
2021-09-10 09:20:00,,0829.7,5.00,0.00,29.9,28.8,00.0,38.8,31.6,09.5,0000.4,0028.74,0019.30,0018.27
2021-09-10 09:21:00,,0829.7,4.99,0.00,29.9,28.9,00.0,38.9,31.7,09.6,0000.7,0028.64,0019.27,0018.26
2021-09-10 09:22:00,,0829.7,5.00,0.00,29.9,28.9,00.0,38.9,31.7,09.7,0000.4,0028.66,0019.22,0018.27
2021-09-10 09:23:00,,0829.7,5.01,0.00,29.9,28.9,00.0,38.9,31.7,09.5,0000.0,0028.75,0019.22,0018.25
2021-09-10 09:24:00,,0829.7,5.00,0.00,30.0,29.0,00.0,38.9,31.7,09.6,-000.1,0028.84,0019.22,0018.25
2021-09-10 09:25:00,,0829.8,5.02,0.00,30.0,29.0,00.0,38.9,31.7,09.5,0000.1,0029.09,0019.24,0018.25
2021-09-10 09:26:00,,0829.7,5.00,0.00,30.0,29.0,00.0,39.0,31.7,09.5,-000.1,0028.43,0019.19,0018.22
2021-09-10 09:27:00,,0829.8,5.00,0.00,30.0,28.6,00.0,39.0,31.7,09.5,-000.1,0028.54,0019.18,0018.20
2021-09-10 09:28:00,,0829.8,5.01,0.00,29.9,26.8,00.0,39.0,31.2,09.6,0000.0,0028.42,0019.20,0018.23
2021-09-10 09:29:00,,0829.7,4.98,0.00,29.8,26.3,00.0,38.9,31.0,09.7,0000.2,0027.56,0019.25,0018.28
2021-09-10 09:30:00,,0829.7,5.01,0.00,29.7,26.6,00.0,38.9,31.1,09.6,0000.1,0027.52,0019.23,0018.27
2021-09-10 09:31:00,,0829.7,5.00,0.00,29.6,27.0,00.0,38.9,31.1,09.7,-000.1,0027.45,0019.20,0018.25
2021-09-10 09:32:00,,0829.7,4.99,0.00,29.6,27.4,00.0,38.8,31.2,09.7,-000.6,0026.90,0019.19,0018.25
2021-09-10 09:33:00,,0829.7,4.99,0.00,29.6,27.7,00.0,38.8,31.2,09.7,-000.6,0026.65,0019.23,0018.23
2021-09-10 09:34:00,,0829.7,5.00,0.00,29.6,27.9,00.0,38.8,31.3,09.7,-000.5,0026.66,0019.29,0018.24
2021-09-10 09:35:00,,0829.7,5.00,0.00,29.6,28.1,00.0,38.8,31.3,09.7,-000.6,0026.37,0019.25,0018.22
2021-09-10 09:36:00,,0829.7,5.00,0.00,29.7,28.2,00.0,38.8,31.3,09.8,-000.6,0025.97,0019.24,0018.21
2021-09-10 09:37:00,,0829.7,5.00,0.00,29.7,28.3,00.0,38.8,31.4,09.9,-000.5,0026.57,0019.34,0018.24
2021-09-10 09:38:00,,0829.6,4.99,0.00,29.7,28.4,00.0,38.8,31.4,10.0,-000.2,0026.58,0019.37,0018.26
2021-09-10 09:39:00,,0829.6,5.01,0.00,29.7,28.5,00.0,38.8,31.4,10.0,-000.3,0026.28,0019.36,0018.27
2021-09-10 09:40:00,,0829.7,4.99,0.00,29.7,28.6,00.0,38.8,31.5,10.0,-000.0,0026.20,0019.32,0018.25
2021-09-10 09:41:00,,0829.6,5.00,0.00,29.8,28.6,00.0,38.8,31.5,09.9,-000.3,0026.51,0019.36,0018.28
2021-09-10 09:42:00,,0829.6,5.01,0.00,29.8,28.7,00.0,38.8,31.5,09.8,-000.3,0027.67,0019.43,0018.31
2021-09-10 09:43:00,,0829.7,5.01,0.00,29.8,28.7,00.0,38.8,31.5,09.8,-000.1,0027.98,0019.44,0018.32
2021-09-10 09:44:00,,0829.6,5.00,0.00,29.8,28.8,00.0,38.8,31.6,09.8,0000.2,0028.47,0019.47,0018.36
2021-09-10 09:45:00,,0829.6,5.03,0.00,29.9,28.8,00.0,38.9,31.6,09.9,0000.2,0029.22,0019.53,0018.42
2021-09-10 09:46:00,,0829.6,5.00,0.00,29.9,28.8,00.0,38.9,31.6,09.9,0000.3,0029.78,0019.60,0018.47
2021-09-10 09:47:00,,0829.6,5.01,0.00,29.9,28.9,00.0,38.9,31.6,10.0,0001.0,0030.03,0019.60,0018.49
2021-09-10 09:48:00,,0829.8,5.00,0.00,29.9,28.9,00.0,38.9,31.7,10.0,0000.6,0029.65,0019.61,0018.52
2021-09-10 09:49:00,,0829.6,4.99,0.00,30.0,28.9,00.0,38.9,31.7,09.9,0000.3,0029.49,0019.59,0018.52
2021-09-10 09:50:00,,0829.6,5.00,0.00,30.0,29.0,00.0,39.0,31.7,09.9,-000.2,0029.62,0019.67,0018.57
2021-09-10 09:51:00,,0829.7,5.00,0.00,30.0,29.0,00.0,39.0,31.8,10.0,-000.7,0029.72,0019.73,0018.63
2021-09-10 09:52:00,,0829.6,5.01,0.00,30.0,29.0,00.0,39.0,31.8,10.2,-001.1,0029.63,0019.81,0018.70
2021-09-10 09:53:00,,0829.7,5.00,0.00,30.0,27.8,00.0,39.0,31.5,10.3,-001.0,0028.74,0019.87,0018.77
2021-09-10 09:54:00,,0829.9,4.99,0.00,29.9,26.3,00.0,39.0,31.1,10.4,-000.9,0029.11,0019.99,0018.86
2021-09-10 09:55:00,,0829.8,5.00,0.00,29.7,26.3,00.0,38.9,31.1,10.4,-001.2,0028.88,0020.05,0018.91
2021-09-10 09:56:00,,0829.6,4.99,0.00,29.6,26.7,00.0,38.9,31.1,10.5,-001.3,0028.99,0020.03,0018.93
2021-09-10 09:57:00,,0829.7,5.01,0.00,29.6,27.1,00.0,38.9,31.1,10.4,-001.7,0029.07,0020.10,0019.00
2021-09-10 09:58:00,,0829.7,5.01,0.00,29.6,27.4,00.0,38.8,31.2,10.4,-001.9,0029.01,0020.17,0019.01
2021-09-10 09:59:00,,0829.7,5.00,0.00,29.6,27.7,00.0,38.8,31.2,10.4,-001.9,0029.23,0020.17,0019.02
